FENGYUN 1C DEB, 30282

Orbit data source: Space-Track

FENGYUN 1C DEB, 30282 is space debris in SSO originally from a launch on Mon, 10 May 1999 UTC launched from the Taiyaun Space Center, China (TSC). Fengyun 1C debris stems from the Chinese weather satellite Fengyun-1C, which was intentionally destroyed by a Chinese anti-satellite missile in 2007. This event dramatically increased the amount of space debris, with thousands of trackable fragments posing hazards to satellites and human spaceflight. The Fengyun 1C debris cloud has become a focal point in discussions about space sustainability and the need for international regulations to prevent the creation of new debris.

Loading next visibility...
Identifier
30282, 1999-025YT
Orbit
SSO
Country
Flag of CNCN / PRC
Related business
Manufacturer
Unknown
Mission
Spacecraft
Bus & Motor
Unknown
Mass
Unknown
Launch date (UTC)
1999-05-10 (26 years ago)
Launch vehicle
Unknown
Launch site
Taiyaun Space Center, China (TSC)
Object type
Payload
Rocket body
Debris
Shape & HBR
Unknown shape, 0.1 m
Radar Cross Section
Small (<0.1 m²)

Expand to show TLE details & history
Last TLE update: 12 hours ago

TLE from 12 hours ago
0 FENGYUN 1C DEB
1 30282U 99025YT  25309.26582316  .00000497  00000-0  23339-3 0  9995
2 30282  98.5026 314.3777 0211480 109.1507 270.9508 14.12898457968225
Epoch: 2025-11-05T06:22Z
TLE epoch observation values (Epoch: 2025-11-05T06:22:47.121Z)
Latitude
17.46709°
Longitude
171.25833°
Altitude
852.488 km
Speed
7.427 km/s
True Right ascension
20h 46m 46s
True Declination
17° 22' 13"
Sunlit
Object was in daylight at epoch
Visualization orbit readout
Latitude
Unknown
Longitude
Unknown
Altitude
Unknown
Speed
Unknown
Apparent Right ascension
Unknown
Apparent Declination
Unknown
Sunlit
N/A
Visualization observer readout
Local Sidereal Time
14:11:11
Azimuth
Unknown
Elevation
Unknown
Doppler factor
Unknown
Orbital elements
Apogee altitude
999.416 km
Perigee altitude
693.837 km
Semi-major axis
7,224.764 km
Eccentricity
0.02115
Inclination
98.5026°
RAAN
314.3777°
Arg. of periapsis
109.1507°
True anomaly
268.52741°
Mean anomaly
270.9508°
Eccentric anomaly
269.73912°
Mean motion
3.53433 °/min
Orbital period
101.86 mins
BSTAR
0.00023339
Loading maneuver chart data...
Computing Atmospheric mass density...

Documentation

Showing up to 5 results
|